Terug naar catalogus

THOR ABLESTAR DEB

ActiefLEO
NORAD 406·DEBRIS·🇺🇸 United States

Gelanceerd Jun 29, 1961 vanaf Cape Canaveral Space Force Station

Loading…

Volgende Passages (komende 24 uur)

TLE

VersSource: Space-Track

Epoch: Sep 6, 2026, 20:32 UTC

1 00406U 61015EF  26249.85590499  .00000205  00000-0  30293-3 0  9992
2 00406  66.7779 160.7516 0118418 338.2815  82.1498 13.69679677232384

Volg THOR ABLESTAR DEB in realtime met AllMySat

Download on the App Store